Regional Weather Roundup
Issued by NWS Upton, NY

Current Version | Previous Version | Text Only | Print | Product List | Glossary On
Versions: 1 2 3 4 5 6 7 8 9 10 11 12 13 14 15 16 17 18 19 20 21 22 23 24 25 26 27 28 29 30 31 32 33 34 35 36 37 38 39 40 41 42 43 44 45 46 47 48 49 50
890
ASUS41 KOKX 101408
RWROKX

REGIONAL WEATHER ROUNDUP
NATIONAL WEATHER SERVICE NEW YORK NY
900 AM EST SAT DEC 10 2016

NOTE: "FAIR" INDICATES FEW OR NO CLOUDS BELOW 12,000 FEET WITH NO
SIGNIFICANT WEATHER AND/OR OBSTRUCTIONS TO VISIBILITY.

NYZ071-072-176-178-NJZ106-104-101500-
NEW YORK CITY METRO AREA

CITY           SKY/WX    TMP DP  RH WIND       PRES   REMARKS
Central Park   MOSUNNY   30  18  60 W8        30.41R WCI  22
Wall St Helipt MOSUNNY   32  23  69 W9        30.42R WCI  24
Bronx Bot Gard   N/A     32  16  51 W13       30.39F WCI  22
LaGuardia APRT PTSUNNY   32  17  54 NW15      30.40R WCI  22
Kennedy INTL   PTSUNNY   32  20  61 W10       30.42R WCI  24
Breezy Point     N/A    N/A N/A N/A W10G17      N/A
Newark/Liberty PTSUNNY   30  22  72 W10       30.41R WCI  21
Teterboro      MOSUNNY   31  15  52 W9        30.40R WCI  23
$$

NYZ177-179-078>081-101500-
LONG ISLAND NEW YORK

CITY           SKY/WX    TMP DP  RH WIND       PRES   REMARKS
Jones Beach      N/A    N/A N/A N/A NW16        N/A
Matinecock PT    N/A     32 N/A N/A W17         N/A  WCI  21
Farmingdale    SUNNY     31  16  54 NW8G16    30.40R WCI  23
MacArthur/ISP  MOSUNNY   30  18  60 W10       30.38R WCI  21
Shirley        MOSUNNY   30  18  60 NW12      30.38R WCI  20
Westhampton    NOT AVBL
Southampton      N/A     32  23  69 NW9       30.34R WCI  24
Bridgehampton  NOT AVBL
East Hampton   PTSUNNY   29  14  54 NW12G18   30.36R WCI  19
Montauk          N/A     29  13  51 NW16G25   30.37R WCI  17
$$

NYZ052-065-067-101500-
HUDSON VALLEY

CITY           SKY/WX    TMP DP  RH WIND       PRES   REMARKS
White Plains   MOSUNNY   29  14  53 NW15      30.36R WCI  18
Newburgh       PTSUNNY   25  19  80 W9        30.37R WCI  15
Montgomery     CLOUDY    25  18  74 SW3       30.36R
Poughkeepsie   CLOUDY    21  17  84 CALM      30.37R
Albany         MOSUNNY   22  12  65 NW9       30.37R WCI  12
$$

NJZ001-105-106-008-010-013-015-019>022-104-101500-
NEW JERSEY

CITY           SKY/WX    TMP DP  RH WIND       PRES   REMARKS
Newark/Liberty PTSUNNY   30  22  72 W10       30.41R WCI  21
Teterboro      MOSUNNY   31  15  52 W9        30.40R WCI  23
Caldwell       MOSUNNY   29  19  66 VRB5      30.41R WCI  24
Somerville     MOSUNNY   31  20  63 VRB6      30.40R WCI  25
Linden           N/A     31  22  69 W10       30.42R WCI  22
Sussex         CLOUDY    26  19  74 S3        30.36R
Andover          N/A     25  20  81 CALM      30.37R
Trenton        MOSUNNY   30  18  60 W9        30.42R WCI  22
Millville      SUNNY     32  20  61 W10       30.47R WCI  24
Atlantic City  SUNNY     30  18  60 W12       30.46R WCI  20
Wrightstown    SUNNY     31  19  60 W12       30.41R WCI  22
Toms River     SUNNY     30  21  69 W10       30.44R WCI  21
Belmar         SUNNY     31  21  66 W12G17    30.42S WCI  22
$$

PAZ047>061-062-071-101500-
EASTERN PENNSYLVANIA

CITY           SKY/WX    TMP DP  RH WIND       PRES   REMARKS
Philadelphia   PTSUNNY   31  17  56 NW10      30.46S WCI  22
Allentown      MOSUNNY   30  19  63 SW7       30.40R WCI  23
Scranton       CLOUDY    27  20  75 SW10      30.34R WCI  17
$$

CTZ002-004>006-009-010-012-RIZ004-006-007-MAZ004-011-015-101500-
SOUTHERN NEW ENGLAND
 IN CT

CITY           SKY/WX    TMP DP  RH WIND       PRES   REMARKS
Bradley INTL   CLOUDY    23  10  57 NW7       30.34R WCI  15
Hartford       CLOUDY    25  10  53 W13       30.36R WCI  14
Danbury        CLOUDY    24  15  68 W6        30.36R WCI  17
Wtrbury/Oxford MOSUNNY   23   9  54 NW6       30.34R WCI  16
Bridgeport     SUNNY     28  14  55 W6        30.39R WCI  22
Meriden        MOSUNNY   28  12  51 W9        30.36R WCI  19
New Haven      MOSUNNY   26  13  57 W6        30.38R WCI  19
Chester          N/A     25  10  54 VRB3      30.34R
Groton         SUNNY     29  10  45 W9        30.36R WCI  20
Wilimantic     SUNNY     25   9  50 W12       30.34R WCI  14

 IN RI

CITY           SKY/WX    TMP DP  RH WIND       PRES   REMARKS
Providence     PTSUNNY   24   7  48 NW8       30.33R WCI  15
Block Island   SUNNY     26  12  55 NW16G23   30.35R WCI  14
Westerly       SUNNY     26   9  48 VRB3      30.36R
 IN MA

CITY           SKY/WX    TMP DP  RH WIND       PRES   REMARKS
Boston         MOSUNNY   23   7  50 W15       30.31R WCI  10
Worcester      MOSUNNY   17   3  54 NW13G23   30.25R WCI   4
Westfield      CLOUDY    22   9  57 NW9G20    30.33R WCI  12
Provincetown   CLOUDY    25  14  63 NW23      30.28R WCI  10
Nantucket      MOSUNNY   27   9  46 NW18      30.30R WCI  14
$$

ANZ330-335-338-340-345-350-353-355-101500-
COASTAL MARINE OBSERVATIONS


STATION/POSITION TIME  SKY/WX   TEMP    WIND        PRES    VSBY  WAVE
                                AIR SEA DIR/SP/G                  HT/PER
                 (UTC)          (F)     (DEG/KT/KT) (MB)    (MI)  (FT/S)
NY HARB ENTRANCE 1250            33 51  290/ 17/ 21 1028.9          2/ 4
20 S FIRE ISLAND 1350            35 52  310/ 19/ 25 1028.7          4/ 5
GREAT SOUTH BAY  1315            30 39                N/A
23 SSW MONTAUK P 1250            32 54  300/ 21/ 27 1027.5          3/ 5
15 E BARNEGAT LI 1330               51                N/A           4/ 4
HUDSON CANYON    1250            37 56              1028.1          8/ 6
KINGS POINT      1342            31 44              1029.3
EXECUTION ROCKS  1345            35     270/ 10/ 17   N/A
CENTRAL LI SOUND 1330            29 49  300/ 16/ 21   N/A           2/ 3
EASTERN LI SOUND NOT AVBL
ROBBINS REEF     1342            30     280/ 12/ 16 1029.7
$$


>>>>>>>>>>>>>>>>>>>>>>>>>>>> KEY <<<<<<<<<<<<<<<<<<<<<<<<<<<
>                                                          <
>     SKY/WX - Sky Condition/Present Weather               <
>     TMP    - Temperature in Fahrenheit                   <
>     DP     - Dew Point in Fahrenheit                     <
>     RH     - Relative Humidity in Percent                <
>     WIND   - Direction (from) and Speed in MPH           <
>     PRES   - Mean Sea Level Pressure (inches of Hg)      <
>     WCI    - Wind Chill Index                            <
>     VSB    - VISIBILITY IN MILES                         <
>     HX     - HEAT INDEX                                  <
>     TC     - TEMPERATURE IN CELSIUS                      <
>     VRB    - VARIABLE WIND DIRECTION                     <
>                                                          <
>>>>>>>>>>>>>>>>>>>>>>>>>>>> KEY <<<<<<<<<<<<<<<<<<<<<<<<<<<




USA.gov is the U.S. government's official web portal to all federal, state and local government web resources and services.